Regional Weather Roundup
Issued by NWS

Home | Current Version | Previous Version | Graphics & Text | Print | Product List | Glossary On
Versions: 1 2 3 4 5 6 7 8 9 10 11 12 13 14 15 16 17 18 19 20 21 22 23 24 25 26 27 28 29 30 31 32 33 34 35 36 37 38 39 40 41 42 43 44 45 46 47 48 49 50
000
ASUS43 KLMK 230110
RWRKY
KENTUCKY REGIONAL WEATHER ROUNDUP
NATIONAL WEATHER SERVICE LOUISVILLE KY
900 PM EDT SUN OCT 22 2017

NOTE "FAIR" INDICATES FEW OR NO CLOUDS BELOW 12,000 FEET
WITH NO SIGNIFICANT WEATHER AND/OR OBSTRUCTIONS TO VISIBILITY.

KYZ001>023-026-027-061>063-070>075-230200-
WESTERN AND SOUTH CENTRAL KENTUCKY

CITY           SKY/WX    TMP DP  RH WIND       PRES   REMARKS
PADUCAH        RAIN      62  59  90 N8        29.92S
HENDERSON      LGT RAIN  69  64  84 S9G21     29.96R
OWENSBORO      CLOUDY    73  61  65 SE9       29.97S
HOPKINSVILLE   DRIZZLE   72  62  72 E6        29.96S
BOWLING GREEN  CLOUDY    70  60  70 E6        30.00F
GLASGOW        CLOUDY    71  58  64 SE8       30.03S
$$

KYZ024-025-028>034-038-045-046-053-230200-
NORTH CENTRAL KENTUCKY

CITY           SKY/WX    TMP DP  RH WIND       PRES   REMARKS
LOUISVILLE/SDF CLOUDY    73  58  59 E8        30.02S
LOUISVILLE/LOU PTCLDY    72  59  63 E8        30.03F
FORT KNOX      CLOUDY    71  58  64 SE8       30.01F
$$

KYZ035>037-039>044-047>052-055>060-089>105-230200-
NORTHEAST KENTUCKY

CITY           SKY/WX    TMP DP  RH WIND       PRES   REMARKS
LEXINGTON      MOCLDY    69  54  58 SE8       30.09F
COVINGTON      CLOUDY    67  54  63 SE10      30.07F
FRANKFORT      CLOUDY    68  53  58 SE7       30.07F
$$

KYZ054-064>069-076>088-106>120-230200-
SOUTHEAST KENTUCKY

CITY           SKY/WX    TMP DP  RH WIND       PRES   REMARKS
JACKSON        PTCLDY    69  49  48 VRB3      30.15F
LONDON         PTCLDY    66  51  58 CALM      30.12F
SOMERSET       MOCLDY    66  52  59 SE3       30.11F
MIDDLESBORO    MOCLDY    60  56  86 CALM      30.15F
MONTICELLO     PTCLDY    67  57  70 SE6       30.11F
$$





USA.gov is the U.S. government's official web portal to all federal, state and local government web resources and services.